Weather at Anacortes Airport

Public forecast

Using degrees Fahrenheit for public forecast. Weather courtesy of forecast.io.

Closest aviation weather report (METAR) to Anacortes Airport

Closest report is Whidbey Island Naval Air Station (Ault Field), 8.8 nm (16.4 km) S. Retrieved 2020/11/30 09:56 UTC (18 minutes ago):

KNUW 300956Z 15026G34KT 10SM FEW060 SCT090 BKN140 OVC180 11/02 A2983 RMK AO2 PK WND 15038/0908 RAB0857E23B39E49 SLP099 P0000 T01110017

Closest aviation forecast (TAF) to Anacortes Airport

Forecast is more than 12 hours old.

Closest forecast is Whidbey Island Naval Air Station (Ault Field), 8.8 nm (16.4 km) S. Retrieved 2015/01/16 19:45 UTC (6 years ago):

TAF COR KNUW 161900Z 1619/1715 21007KT 9999 VCSH FEW007 SCT025 BKN035 OVC080 5341809 532709 536604 QNH3010INS TEMPO 1619/1621 17008KT BKN030 OVC080 FM170000 15010KT 9999 VCSH FEW025 SCT040 BKN060 BKN100 BKN250 531809 532709 533604 QNH3018INS TEMPO 1700/1706 11007KT 9000 BR SCT010 BKN020 OVC060 FM170400 13010KT 9999 VCSH FEW025 BKN040 BKN100 BKN180 500000 QNH2994INS TEMPO 1709/1715 14012G16KT 9999 BKN025 T11/1623Z T06/1714Z COR 2015Z FS30004